Regional Weather Roundup
Issued by NWS

Home | Current Version | Previous Version | Graphics & Text | Print | Product List | Glossary On
Versions: 1 2 3 4 5 6 7 8 9 10 11 12 13 14 15 16 17 18 19 20 21 22 23 24 25 26 27
000
ASUS45 KCYS 280910
RWRWY

WYOMING REGIONAL WEATHER ROUNDUP
NATIONAL WEATHER SERVICE CHEYENNE WY
300 AM MDT WED SEP 28 2016

NOTE:  "FAIR" INDICATES FEW OR NO CLOUDS BELOW 12,000 FEET
WITH NO SIGNIFICANT WEATHER AND/OR OBSTRUCTIONS TO VISIBILITY.

WYZ001-281000-
YELLOWSTONE NATIONAL PARK

CITY           SKY/WX    TMP DP  RH WIND       PRES   REMARKS
LK YELLOWSTONE   N/A     32  32 100 NW3       30.42R
W YELLOWSTONE  NOT AVBL

$$
WYZ002>013-054>058-071-098>099-281000-
NORTHERN WYOMING

CITY           SKY/WX    TMP DP  RH WIND       PRES   REMARKS
JACKSON        FAIR      41  36  81 N6        30.33S
CODY           FAIR      56  41  57 SW9       30.26S
GREYBULL       FAIR      50  46  86 SE5       30.20R
WORLAND        FAIR      50  43  77 S7        30.21R
SHERIDAN       FAIR      46  40  79 CALM      30.19S
BUFFALO        FAIR      56  37  49 W8        30.25S
GILLETTE       FAIR      48  43  82 S5        30.20S
HULETT         FAIR      50  41  71 S3        30.21R
NEWCASTLE      FAIR      50  37  62 N3        30.20S

$$
WYZ014>020-022>026-101>103-281000-
CENTRAL WYOMING

CITY           SKY/WX    TMP DP  RH WIND       PRES   REMARKS
BIG PINEY      FAIR      39  34  82 NW3       30.35S
PINEDALE       FAIR      32  32 100 NW6       30.37R WCI  26
DUBOIS         FAIR      41  32  70 NW12      30.37F
LANDER         FAIR      54  34  46 SW9       30.28R
RIVERTON       FAIR      49  41  74 NW9       30.28S
CASPER         FAIR      43  38  82 W6        30.27S
DOUGLAS        FAIR      44  37  76 NW3       30.26R

$$
WYZ021-027>030-104>119-281000-
SOUTHERN WYOMING

CITY           SKY/WX    TMP DP  RH WIND       PRES   REMARKS
EVANSTON       FAIR      50  36  58 SE8       30.32S
FORT BRIDGER   FAIR      55  37  50 W5        30.35R
ROCK SPRINGS   FAIR      52  36  54 CALM      30.32R
DIXON          FAIR      47  34  60 NE8       30.34S
RAWLINS        FAIR      39  29  67 N3        30.34R
SARATOGA       FAIR      37  32  81 CALM      30.36R
LARAMIE        FAIR      40  30  67 S6        30.36S
CHEYENNE       FAIR      48  31  51 W10       30.29S
TORRINGTON     FAIR      47  40  76 W3        30.18R
PINE BLUFFS    FAIR      41  34  75 W3        30.25S

$$




USA.gov is the U.S. government's official web portal to all federal, state and local government web resources and services.